Regional Weather Roundup
Issued by NWS

Home | Current Version | Previous Version | Text Only | Print | Product List | Glossary Off
Versions: 1 2 3 4 5 6 7 8 9 10 11 12 13 14 15 16 17 18 19 20 21 22 23 24 25 26 27 28 29 30 31 32 33 34 35 36 37 38 39 40 41 42 43 44 45 46 47 48 49 50

388
ASUS44 KLIX 202210
RWRLA
LOUISIANA WEATHER ROUNDUP
NATIONAL WEATHER SERVICE NEW ORLEANS LA
500 PM CDT WED AUG 20 2014

NOTE: "FAIR" INDICATES FEW OR NO CLOUDS BELOW 12,000 FEET WITH NO
      SIGNIFICANT WEATHER AND/OR OBSTRUCTIONS TO VISIBILITY.
      SKY/WX - SKY CONDITION AND SIGNIFICANT WEATHER.
      TMP - AIR TEMPERATURE.    DP   - DEWPOINT TEMPERATURE.
      RH  - RELATIVE HUMIDITY.  PRES - PRESSURE.
      HX  - HEAT INDEX.         WCI  - WIND CHILL INDEX.

*  THESE STATIONS ARE NOT NWS OR FAA STATIONS AND ARE NOT UNDER
   NWS QUALITY CONTROL.

LAZ040-048-061>063-065-066-069-202300-
SOUTHEAST LOUISIANA

CITY           SKY/WX    TMP DP  RH WIND       PRES   REMARKS
N.O. AUDUBON     N/A     85  73  68 MISG        N/A
N.O. INTL ARPT CLOUDY    84  73  69 S7        30.05S
N.O. LAKEFRONT PTSUNNY   86  73  65 SE7       30.05F
N.O. DOWNTOWN* FAIR      88  72  58 S3        30.06R
SLIDELL        PTSUNNY   91  71  51 S10       30.03S HX  97
BATON ROUGE    CLOUDY    80  73  79 CALM      30.06R
BOOTHVILLE     PTSUNNY   88  75  65 S7        30.06S HX  97
BELLE CHASSE   CLOUDY    85  71  63 E3        30.05S
BOGALUSA*      MOCLDY    95  71  46 CALM      30.04S HX 102
GALLIANO*      NOT AVBL
NEW ROADS*     FAIR      79  73  80 CALM      30.06R
GONZALES*      FAIR      76  75  96 CALM      30.04F
HAMMOND*       PTSUNNY   82  72  69 CALM      30.07R
HOUMA*         LGT RAIN  75  72  88 W8        30.06S
PORT FOURCHON* CLEAR     88  75  66 S9        30.07S HX  97

$$

LAZ041-044-053-054-202300-
SOUTHWEST LOUISIANA

CITY           SKY/WX    TMP DP  RH WIND       PRES   REMARKS
LAKE CHARLES   CLOUDY    84  77  79 CALM      30.02R
LAFAYETTE      CLOUDY    77  73  87 NE6       30.04R
PATTERSON      PTSUNNY  N/A N/A N/A MISG        N/A
SALT POINT       N/A     91  78  65 VRB3      30.04S HX 106
NEW IBERIA     CLOUDY    83  72  69 CALM      30.05R
CHENAULT AIRPK PTSUNNY   84  75  74 CALM      30.03R

$$

LAZ027-028-202300-
CENTRAL LOUISIANA

CITY           SKY/WX    TMP DP  RH WIND       PRES   REMARKS
FORT POLK      TSTM      73  72  94 SW10      30.06S VSB 3/4
ALEXANDRIA INT MOSUNNY   89  73  59 S13       30.00R HX  97
ALEXANDRIA     MOSUNNY   91  74  57 S8        30.03R HX 100

$$

LAZ001-002-202300-
NORTHWEST LOUISIANA

CITY           SKY/WX    TMP DP  RH WIND       PRES   REMARKS
SHREVEPORT     MOSUNNY   95  69  42 S9        29.96F HX 100
BARKSDALE AFB  MOSUNNY   96  68  40 SE12      29.97S HX 100
DTN SHREVEPORT SUNNY     92  69  47 SE8       29.96F HX  97

$$

LAZ014-016-202300-
NORTHEAST LOUISIANA

CITY           SKY/WX    TMP DP  RH WIND       PRES   REMARKS
MONROE         SUNNY     92  69  47 S7        30.01S HX  97
TALLULAH       SUNNY     92  67  43 S8        30.02S HX  95

$$




USA.gov is the U.S. government's official web portal to all federal, state and local government web resources and services.